Rochester, Indiana, United States (46975)
Lat: 41.06N, Lon: 86.22W
Wx Zone: INZ015
Local Info
Past Weather Observations for Today

NOTE: This archive is for the closest National Weather Service station to Rochester. Information may differ from the station used for current weather conditions.

Time Weather Temperature Dewpoint Humidity Pressure Winds Precip Visibility
21:55
Clear
45°F / 7°C 27°F / -3°C 49% 30.3 in
(1026 mb)
E 6.9 mph
(E 11 kph)
- 10SM
21:35
Clear
46°F / 8°C 27°F / -3°C 46% 30.3 in
(1026 mb)
E 6.9 mph
(E 11 kph)
- 10SM
21:15
Clear
48°F / 9°C 27°F / -3°C 43% 30.3 in
(1026 mb)
E 6.9 mph
(E 11 kph)
- 10SM
20:55
Clear
50°F / 10°C 28°F / -2°C 43% 30.3 in
(1026 mb)
ESE 9.2 mph
(ESE 15 kph)
- 10SM
20:35
Clear
50°F / 10°C 30°F / -1°C 47% 30.3 in
(1026 mb)
SE 8.1 mph
(SE 13 kph)
- 10SM
20:15
Clear
52°F / 11°C 30°F / -1°C 44% 30.3 in
(1026 mb)
SE 8.1 mph
(SE 13 kph)
- 10SM
19:55
Clear
52°F / 11°C 32°F / 0°C 47% 30.3 in
(1026 mb)
SE 6.9 mph
(SE 11 kph)
- 10SM
19:35
Clear
52°F / 11°C 32°F / 0°C 47% 30.3 in
(1026 mb)
SE 5.8 mph
(SE 9 kph)
- 10SM
19:15
Clear
54°F / 12°C 32°F / 0°C 44% 30.3 in
(1026 mb)
SE 8.1 mph
(SE 13 kph)
- 10SM
18:55
Clear
55°F / 13°C 32°F / 0°C 41% 30.3 in
(1026 mb)
SE 8.1 mph
(SE 13 kph)
- 10SM
18:35
Clear
57°F / 14°C 32°F / 0°C 39% 30.27 in
(1025 mb)
SE 9.2 mph
(SE 15 kph)
- 10SM
18:15
Clear
59°F / 15°C 34°F / 1°C 39% 30.27 in
(1025 mb)
SE 9.2 mph
(SE 15 kph)
- 10SM
17:55
Clear
59°F / 15°C 34°F / 1°C 39% 30.27 in
(1025 mb)
SE 8.1 mph
(SE 13 kph)
- 10SM
17:35
Clear
61°F / 16°C 34°F / 1°C 36% 30.27 in
(1025 mb)
SE 9.2 mph
(SE 15 kph)
- 10SM
17:15
Clear
61°F / 16°C 34°F / 1°C 36% 30.27 in
(1025 mb)
SE 9.2 mph
(SE 15 kph)
- 10SM
16:55
Clear
61°F / 16°C 34°F / 1°C 36% 30.27 in
(1025 mb)
SE 11.5 mph
(SE 19 kph)
- 10SM
16:35
Clear
61°F / 16°C 36°F / 2°C 39% 30.3 in
(1026 mb)
ESE 8.1 mph
(ESE 13 kph)
- 10SM
16:15
Clear
61°F / 16°C 36°F / 2°C 39% 30.3 in
(1026 mb)
SE 6.9 mph
(SE 11 kph)
- 10SM
15:55
Clear
61°F / 16°C 36°F / 2°C 39% 30.3 in
(1026 mb)
SE 8.1 mph
(SE 13 kph)
- 10SM
15:35
Clear
61°F / 16°C 36°F / 2°C 39% 30.3 in
(1026 mb)
SE 9.2 mph
(SE 15 kph)
- 10SM
15:15
Clear
61°F / 16°C 36°F / 2°C 39% 30.33 in
(1027 mb)
ESE 11.5 mph
(ESE 19 kph)
- 10SM
14:55
Clear
59°F / 15°C 36°F / 2°C 42% 30.33 in
(1027 mb)
ESE 11.5 mph
(ESE 19 kph)
- 10SM
14:35
Clear
59°F / 15°C 36°F / 2°C 42% 30.33 in
(1027 mb)
E 11.5 mph
(E 19 kph)
- 10SM
14:15
Clear
59°F / 15°C 37°F / 3°C 45% 30.33 in
(1027 mb)
SE 9.2 mph
(SE 15 kph)
- 10SM
13:55
Clear
59°F / 15°C 37°F / 3°C 45% 30.33 in
(1027 mb)
SE 8.1 mph
(SE 13 kph)
- 10SM
13:35
Clear
59°F / 15°C 37°F / 3°C 45% 30.36 in
(1028 mb)
SE 5.8 mph
(SE 9 kph)
- 10SM
13:15
Clear
57°F / 14°C 36°F / 2°C 44% 30.36 in
(1028 mb)
E 11.5 mph
(E 19 kph)
- 10SM
12:55
Clear
57°F / 14°C 37°F / 3°C 48% 30.36 in
(1028 mb)
SE 9.2 mph
(SE 15 kph)
- 10SM
12:35
Clear
55°F / 13°C 37°F / 3°C 51% 30.36 in
(1028 mb)
E 9.2 mph
(E 15 kph)
- 10SM
12:15
Clear
55°F / 13°C 36°F / 2°C 47% 30.36 in
(1028 mb)
ESE 9.2 mph
(ESE 15 kph)
- 10SM
11:55
Clear
54°F / 12°C 37°F / 3°C 54% 30.36 in
(1028 mb)
SE 10.4 mph
(SE 17 kph)
- 10SM
11:35
Clear
54°F / 12°C 36°F / 2°C 51% 30.39 in
(1029 mb)
ESE 13.8 mph
(ESE 22 kph)
- 10SM
11:15
Clear
52°F / 11°C 36°F / 2°C 54% 30.39 in
(1029 mb)
SE 9.2 mph
(SE 15 kph)
- 10SM
10:55
Clear
52°F / 11°C 36°F / 2°C 54% 30.39 in
(1029 mb)
SE 12.7 mph
(SE 20 kph)
- 10SM
10:35
Clear
50°F / 10°C 36°F / 2°C 58% 30.39 in
(1029 mb)
ESE 10.4 mph
(ESE 17 kph)
- 10SM
10:15
Clear
50°F / 10°C 36°F / 2°C 58% 30.39 in
(1029 mb)
E 10.4 mph
(E 17 kph)
- 10SM
09:55
Clear
48°F / 9°C 36°F / 2°C 62% 30.39 in
(1029 mb)
ESE 10.4 mph
(ESE 17 kph)
- 10SM
09:35
Clear
46°F / 8°C 34°F / 1°C 62% 30.39 in
(1029 mb)
E 10.4 mph
(E 17 kph)
- 10SM
09:15
Clear
45°F / 7°C 34°F / 1°C 66% 30.39 in
(1029 mb)
SE 11.5 mph
(SE 19 kph)
- 10SM
08:55
Clear
45°F / 7°C 34°F / 1°C 66% 30.39 in
(1029 mb)
ESE 11.5 mph
(ESE 19 kph)
- 10SM
08:35
Clear
43°F / 6°C 34°F / 1°C 71% 30.39 in
(1029 mb)
E 12.7 mph
(E 20 kph)
- 10SM
08:15
Clear
41°F / 5°C 34°F / 1°C 76% 30.39 in
(1029 mb)
E 10.4 mph
(E 17 kph)
- 10SM
07:55
Clear
41°F / 5°C 34°F / 1°C 76% 30.39 in
(1029 mb)
E 15 mph
(E 24 kph)
- 10SM
07:35
Clear
39°F / 4°C 34°F / 1°C 81% 30.39 in
(1029 mb)
E 13.8 mph
(E 22 kph)
- 7SM
07:15
Clear
39°F / 4°C 34°F / 1°C 81% 30.39 in
(1029 mb)
E 11.5 mph
(E 19 kph)
- 7SM
06:55
Clear
Fog And Mist
37°F / 3°C 34°F / 1°C 87% 30.39 in
(1029 mb)
E 12.7 mph
(E 20 kph)
- 5SM
06:35
Clear
Fog And Mist
37°F / 3°C 34°F / 1°C 87% 30.36 in
(1028 mb)
E 9.2 mph
(E 15 kph)
- 5SM
06:15
Clear
Fog And Mist
36°F / 2°C 34°F / 1°C 93% 30.36 in
(1028 mb)
E 9.2 mph
(E 15 kph)
- 5SM
05:55
Clear
37°F / 3°C 34°F / 1°C 87% 30.36 in
(1028 mb)
ENE 9.2 mph
(ENE 15 kph)
- 7SM
05:35
Clear
37°F / 3°C 34°F / 1°C 87% 30.33 in
(1027 mb)
ENE 8.1 mph
(ENE 13 kph)
- 10SM
05:15
Clear
36°F / 2°C 32°F / 0°C 87% 30.33 in
(1027 mb)
ENE 8.1 mph
(ENE 13 kph)
- 10SM
04:55
Clear
36°F / 2°C 32°F / 0°C 87% 30.33 in
(1027 mb)
ENE 5.8 mph
(ENE 9 kph)
- 10SM
04:35
Clear
36°F / 2°C 32°F / 0°C 87% 30.33 in
(1027 mb)
ENE 5.8 mph
(ENE 9 kph)
- 10SM
04:15
Clear
36°F / 2°C 32°F / 0°C 87% 30.33 in
(1027 mb)
NE 5.8 mph
(NE 9 kph)
- 10SM
03:55
Clear
36°F / 2°C 30°F / -1°C 81% 30.33 in
(1027 mb)
ENE 5.8 mph
(ENE 9 kph)
- 10SM
03:35
Clear
36°F / 2°C 30°F / -1°C 81% 30.33 in
(1027 mb)
NE 5.8 mph
(NE 9 kph)
- 10SM
03:15
Clear
36°F / 2°C 28°F / -2°C 75% 30.33 in
(1027 mb)
Calm - 10SM
02:55
Clear
34°F / 1°C 28°F / -2°C 81% 30.33 in
(1027 mb)
Calm - 10SM
02:35
Clear
36°F / 2°C 28°F / -2°C 75% 30.33 in
(1027 mb)
Calm - 10SM
02:15
Clear
34°F / 1°C 28°F / -2°C 81% 30.33 in
(1027 mb)
Calm - 10SM
01:55
Clear
34°F / 1°C 28°F / -2°C 81% 30.33 in
(1027 mb)
N 3.5 mph
(N 6 kph)
- 10SM
01:35
Clear
36°F / 2°C 28°F / -2°C 75% 30.33 in
(1027 mb)
NNW 3.5 mph
(NNW 6 kph)
- 10SM
01:15
Clear
36°F / 2°C 28°F / -2°C 75% 30.33 in
(1027 mb)
Calm - 10SM
00:55
Clear
37°F / 3°C 28°F / -2°C 70% 30.33 in
(1027 mb)
Calm - 10SM
00:35
Clear
37°F / 3°C 30°F / -1°C 75% 30.33 in
(1027 mb)
Calm - 10SM
00:15
Clear
36°F / 2°C 30°F / -1°C 81% 30.33 in
(1027 mb)
Calm - 10SM
Time Weather Temperature Dewpoint Humidity Pressure Winds Precip Visibility


Weather for websites

WeatherForYou.com, LLC is not responsible for any damages or problems caused by this service. Current weather conditions are obtained from the closest station including government and personal stations which may have varying degrees of accuracy. Weather forecasts are derived from the NOAA NDFD. Like all things, this site belongs to Jesus Christ... He just trusts me to maintain it. If you have any questions or comments email webmaster@weatherforyou.com

Copyright © 2014, WeatherForYou.com LLC. All rights reserved.